CST,Max TemperatureF,Mean TemperatureF,Min TemperatureF,Max Dew PointF,MeanDew PointF,Min DewpointF,Max Humidity, Mean Humidity, Min Humidity, Max Sea Level PressureIn, Mean Sea Level PressureIn, Min Sea Level PressureIn, Max VisibilityMiles, Mean VisibilityMiles, Min VisibilityMiles, Max Wind SpeedMPH, Mean Wind SpeedMPH, Max Gust SpeedMPH,PrecipitationIn, CloudCover, Events, WindDirDegrees
2012-11-1,78,57,35,42,37,32,89,57,25,30.03,29.97,29.90,10,10,8,17,5,23,0.00,1,,314
2012-11-2,69,57,44,43,38,32,76,57,37,29.98,29.92,29.83,10,10,9,20,10,23,0.00,0,,74
2012-11-3,61,48,35,33,32,30,82,59,36,30.23,30.15,30.00,10,9,2,16,6,21,0.00,0,,331
2012-11-4,67,49,30,41,34,27,89,61,32,30.25,30.14,30.03,10,9,3,15,4,18,T,1,Rain,174
2012-11-5,54,49,44,43,41,39,89,80,71,30.14,30.09,30.00,10,8,2,20,9,26,T,8,Rain,326
2012-11-6,64,53,42,40,32,23,83,52,21,30.11,30.07,30.01,10,9,7,30,10,40,0.00,2,,277
2012-11-7,59,47,35,31,28,25,65,49,33,30.22,30.14,30.09,10,10,10,13,5,18,0.00,0,,327
2012-11-8,71,54,37,43,36,29,76,54,31,30.09,29.95,29.85,10,10,9,21,9,25,0.00,0,,140
2012-11-9,79,64,49,58,52,43,77,61,45,29.84,29.77,29.70,10,10,9,21,13,31,0.00,0,,157
2012-11-10,75,69,63,57,55,52,68,59,49,29.75,29.68,29.63,10,10,10,30,19,43,0.00,1,,178
2012-11-11,63,46,28,57,40,18,92,74,56,30.28,29.86,29.64,10,6,0,23,11,29,1.27,7,Fog-Rain-Thunderstorm,277
2012-11-12,48,37,26,25,20,16,78,52,26,30.45,30.39,30.29,10,10,7,20,6,28,0.00,0,,258
2012-11-13,59,42,24,31,27,22,92,59,25,30.45,30.40,30.32,10,9,7,13,3,16,0.00,0,,184
2012-11-14,59,45,31,30,27,24,85,56,26,30.41,30.33,30.27,10,10,7,16,5,21,0.00,0,,167
2012-11-15,56,45,34,36,31,28,85,63,41,30.42,30.32,30.25,10,8,5,9,1,12,0.00,2,,207
2012-11-16,61,45,29,38,32,27,96,66,36,30.48,30.41,30.36,9,6,2,13,3,15,0.00,0,,115
2012-11-17,63,47,31,35,31,26,92,62,32,30.38,30.32,30.25,10,8,2,21,6,29,0.00,0,,158
2012-11-18,65,53,41,37,33,27,57,46,34,30.25,30.17,30.11,10,10,8,21,11,30,0.00,2,,160
2012-11-19,70,57,43,45,42,35,77,59,40,30.13,30.10,30.04,10,8,2,17,8,24,0.00,1,,210
2012-11-20,67,52,37,40,37,34,85,60,34,30.25,30.20,30.14,10,8,1,9,2,12,0.00,0,,288
2012-11-21,75,55,34,43,39,31,96,65,33,30.21,30.09,29.92,10,9,5,20,9,31,0.00,0,,185
2012-11-22,74,59,43,51,42,34,65,49,33,30.28,29.96,29.81,10,10,10,25,14,32,0.00,0,,247
2012-11-23,44,34,24,33,15,8,70,48,25,30.56,30.47,30.30,10,10,7,30,10,39,0.00,0,,309
2012-11-24,50,36,22,23,19,14,84,57,29,30.44,30.16,29.89,10,10,10,20,8,25,0.00,0,,172
2012-11-25,58,43,27,31,27,23,78,57,36,30.07,29.97,29.89,10,10,10,14,6,18,0.00,0,,32
2012-11-26,45,34,22,27,24,16,85,65,45,30.51,30.33,30.09,10,10,10,22,9,29,0.00,1,,11
2012-11-27,43,29,15,20,16,11,88,62,36,30.50,30.40,30.28,10,10,8,14,4,18,0.00,0,,206
2012-11-28,56,37,18,32,25,14,85,59,32,30.43,30.32,30.16,10,10,7,13,3,17,0.00,0,,166
2012-11-29,63,51,39,41,36,31,85,64,43,30.14,30.04,29.95,10,10,10,15,6,20,0.00,0,,183
2012-11-30,61,46,30,41,35,27,85,64,42,30.11,30.04,29.99,10,10,7,9,2,14,0.00,1,,130